DELTA 1 DEB, 12531

Orbit data source: Space-Track

DELTA 1 DEB, 12531 is space debris in SSO originally from a launch on Thu, 29 Jul 1976 UTC launched from the Air Force Western Test Range (AFWTR). Debris objects in space refer to the collection of defunct objects orbiting the Earth. Examples of debris include non-operational satellites, rocket bodies, and fragments generated from explosions, collisions, or faulty payload assembly.

Loading next visibility...
Identifier
12531, 1976-077DL
Orbit
SSO
Country
Flag of USUS
Related business
Manufacturer
Unknown
Mission
Spacecraft
Bus & Motor
Unknown
Mass
Unknown
Launch date (UTC)
1976-07-29 (50 years ago)
Launch vehicle
Unknown
Launch site
Air Force Western Test Range (AFWTR)
Object type
Payload
Rocket body
Debris
Shape & HBR
Unknown shape, 0.1 m
Radar Cross Section
Small (<0.1 m²)

Expand to show TLE details & history
Last TLE update: 2 days ago

TLE from 2 days ago
0 DELTA 1 DEB
1 12531U 76077DL  26124.88831303 -.00000018  00000-0  21486-3 0  9992
2 12531 101.7869 274.9421 0136806 187.6569 327.7095 12.18514412 41963
Epoch: 2026-05-04T21:19Z
TLE epoch observation values (Epoch: 2026-05-04T21:19:10.245Z)
Latitude
24.93732°
Longitude
-82.08095°
Altitude
1,509.865 km
Speed
7.153 km/s
True Right ascension
06h 41m 55s
True Declination
24° 49' 07"
Sunlit
Object was in daylight at epoch
Visualization orbit readout
Latitude
Unknown
Longitude
Unknown
Altitude
Unknown
Speed
Unknown
Apparent Right ascension
Unknown
Apparent Declination
Unknown
Sunlit
N/A
Visualization observer readout
Local Sidereal Time
03:57:15
Azimuth
Unknown
Elevation
Unknown
Doppler factor
Unknown
Orbital elements
Apogee altitude
1,705.708 km
Perigee altitude
1,487.509 km
Semi-major axis
7,974.745 km
Eccentricity
0.01368
Inclination
101.7869°
RAAN
274.9421°
Arg. of periapsis
187.6569°
True anomaly
326.85978°
Mean anomaly
327.7095°
Eccentric anomaly
327.28588°
Mean motion
3.04767 °/min
Orbital period
118.12 mins
BSTAR
0.00021486
Loading maneuver chart data...
Computing Atmospheric mass density...
Loading historical data...
Loading historical data...
Loading historical data...
Loading historical data...
Loading historical data...
Loading historical data...
Loading historical data...

Documentation

Showing up to 5 results
|